Location: Central Falls
(41.8900°N, 71.3929°W)
Time: 11:24:37
(UTC+00:00)

A-11 Canister half - Pass Details

Date: 08 December 2023
Orbit: 1512 x 1687 km, 47.2° (Epoch: 20 February)

Event Time Altitude Azimuth Distance (km) Brightness Sun altitude
Rises 02:33:19 0° 204° (SSW) 4,666 - -57.8°
Reaches altitude 10° 02:36:37 10° 196° (SSW) 3,703 - -58.4°
Maximum altitude 02:44:53 37° 133° (SE) 2,279 - -59.7°
Drops below altitude 10° 02:53:26 10° 71° (ENE) 3,833 - -61.1°
Sets 02:56:54 0° 64° (ENE) 4,848 - -61.6°
